Time,TemperatureF,DewpointF,PressureIn,WindDirection,WindDirectionDegrees,WindSpeedMPH,WindSpeedGustMPH,Humidity,HourlyPrecipIn,Conditions,Clouds,dailyrainin,SoftwareType,DateUTC
2013-12-27 00:00:00,71.8,64.9,30.03,NE,45,4.0,-999.0,79,0.00,,,0.00,Wunderground v.1.15,2013-12-27 10:00:00,
2013-12-27 00:05:00,71.8,64.9,30.03,NE,45,4.0,-999.0,79,0.00,,,0.00,Wunderground v.1.15,2013-12-27 10:05:00,
2013-12-27 00:10:00,71.8,64.9,30.03,NE,45,4.0,-999.0,79,0.00,,,0.00,Wunderground v.1.15,2013-12-27 10:10:00,
2013-12-27 00:15:00,71.8,64.9,30.03,NE,45,4.0,-999.0,79,0.00,,,0.00,Wunderground v.1.15,2013-12-27 10:15:00,
2013-12-27 00:20:00,71.8,64.9,30.03,NE,45,4.0,-999.0,79,0.00,,,0.00,Wunderground v.1.15,2013-12-27 10:20:00,
2013-12-27 00:25:00,71.8,64.9,30.03,NE,45,4.0,-999.0,79,0.00,,,0.00,Wunderground v.1.15,2013-12-27 10:25:00,
2013-12-27 00:30:00,71.8,64.9,30.03,NE,45,4.0,-999.0,79,0.00,,,0.00,Wunderground v.1.15,2013-12-27 10:30:00,
2013-12-27 00:35:00,71.8,64.9,30.03,NE,45,4.0,-999.0,79,0.00,,,0.00,Wunderground v.1.15,2013-12-27 10:35:00,
2013-12-27 00:40:00,71.8,64.9,30.03,NE,45,4.0,-999.0,79,0.00,,,0.00,Wunderground v.1.15,2013-12-27 10:40:00,
2013-12-27 00:45:00,72.3,64.3,30.03,NE,45,6.0,-999.0,76,0.00,,,0.00,Wunderground v.1.15,2013-12-27 10:45:00,
2013-12-27 00:50:00,72.3,64.3,30.03,NE,45,6.0,-999.0,76,0.00,,,0.00,Wunderground v.1.15,2013-12-27 10:50:00,
2013-12-27 00:55:00,72.3,64.3,30.03,NE,45,6.0,-999.0,76,0.00,,,0.00,Wunderground v.1.15,2013-12-27 10:55:00,
2013-12-27 01:00:00,72.3,64.3,30.03,NE,45,6.0,-999.0,76,0.00,,,0.00,Wunderground v.1.15,2013-12-27 11:00:00,
2013-12-27 01:05:00,72.3,64.3,30.03,NE,45,6.0,-999.0,76,0.00,,,0.00,Wunderground v.1.15,2013-12-27 11:05:00,
2013-12-27 01:10:00,72.3,64.3,30.03,NE,45,6.0,-999.0,76,0.00,,,0.00,Wunderground v.1.15,2013-12-27 11:10:00,
2013-12-27 01:15:00,72.7,63.5,30.02,NE,45,6.0,-999.0,73,0.00,,,0.00,Wunderground v.1.15,2013-12-27 11:15:00,
2013-12-27 01:20:00,72.7,63.5,30.02,NE,45,6.0,-999.0,73,0.00,,,0.00,Wunderground v.1.15,2013-12-27 11:20:00,
2013-12-27 01:25:00,72.7,63.5,30.02,NE,45,6.0,-999.0,73,0.00,,,0.00,Wunderground v.1.15,2013-12-27 11:25:00,
2013-12-27 01:30:00,72.7,63.5,30.02,NE,45,6.0,-999.0,73,0.00,,,0.00,Wunderground v.1.15,2013-12-27 11:30:00,
2013-12-27 01:35:00,72.7,63.5,30.02,NE,45,6.0,-999.0,73,0.00,,,0.00,Wunderground v.1.15,2013-12-27 11:35:00,
2013-12-27 01:40:00,72.7,63.5,30.02,NE,45,6.0,-999.0,73,0.00,,,0.00,Wunderground v.1.15,2013-12-27 11:40:00,
2013-12-27 01:45:00,72.4,64.0,30.01,NE,45,6.0,-999.0,75,0.00,,,0.00,Wunderground v.1.15,2013-12-27 11:45:00,
2013-12-27 01:50:00,72.4,64.0,30.01,NE,45,6.0,-999.0,75,0.00,,,0.00,Wunderground v.1.15,2013-12-27 11:50:00,
2013-12-27 01:55:00,72.4,64.0,30.01,NE,45,6.0,-999.0,75,0.00,,,0.00,Wunderground v.1.15,2013-12-27 11:55:00,
2013-12-27 02:00:00,72.4,64.0,30.01,NE,45,6.0,-999.0,75,0.00,,,0.00,Wunderground v.1.15,2013-12-27 12:00:00,
2013-12-27 02:05:00,72.4,64.0,30.01,NE,45,6.0,-999.0,75,0.00,,,0.00,Wunderground v.1.15,2013-12-27 12:05:00,
2013-12-27 02:10:00,72.4,64.0,30.01,NE,45,6.0,-999.0,75,0.00,,,0.00,Wunderground v.1.15,2013-12-27 12:10:00,
2013-12-27 02:15:00,72.0,63.6,30.01,NE,45,4.0,-999.0,75,0.00,,,0.00,Wunderground v.1.15,2013-12-27 12:15:00,
2013-12-27 02:20:00,72.0,63.6,30.01,NE,45,4.0,-999.0,75,0.00,,,0.00,Wunderground v.1.15,2013-12-27 12:20:00,
2013-12-27 02:25:00,72.0,63.6,30.01,NE,45,4.0,-999.0,75,0.00,,,0.00,Wunderground v.1.15,2013-12-27 12:25:00,
2013-12-27 02:30:00,72.0,63.6,30.01,NE,45,4.0,-999.0,75,0.00,,,0.00,Wunderground v.1.15,2013-12-27 12:30:00,
2013-12-27 02:35:00,72.0,63.6,30.01,NE,45,4.0,-999.0,75,0.00,,,0.00,Wunderground v.1.15,2013-12-27 12:35:00,
2013-12-27 02:40:00,72.0,63.6,30.01,NE,45,4.0,-999.0,75,0.00,,,0.00,Wunderground v.1.15,2013-12-27 12:40:00,
2013-12-27 02:45:00,71.8,65.3,30.01,NE,45,3.0,-999.0,80,0.00,,,0.00,Wunderground v.1.15,2013-12-27 12:45:00,
2013-12-27 02:50:00,71.8,65.3,30.01,NE,45,3.0,-999.0,80,0.00,,,0.00,Wunderground v.1.15,2013-12-27 12:50:00,
2013-12-27 02:55:00,71.8,65.3,30.01,NE,45,3.0,-999.0,80,0.00,,,0.00,Wunderground v.1.15,2013-12-27 12:55:00,
2013-12-27 03:00:00,71.8,65.3,30.01,NE,45,3.0,-999.0,80,0.00,,,0.00,Wunderground v.1.15,2013-12-27 13:00:00,
2013-12-27 03:05:00,71.8,65.3,30.01,NE,45,3.0,-999.0,80,0.00,,,0.00,Wunderground v.1.15,2013-12-27 13:05:00,
2013-12-27 03:10:00,71.8,65.3,30.01,NE,45,3.0,-999.0,80,0.00,,,0.00,Wunderground v.1.15,2013-12-27 13:10:00,
2013-12-27 03:15:00,70.2,65.8,30.00,NE,45,4.0,-999.0,86,0.00,,,0.00,Wunderground v.1.15,2013-12-27 13:15:00,
2013-12-27 03:20:00,70.2,65.8,30.00,NE,45,4.0,-999.0,86,0.00,,,0.00,Wunderground v.1.15,2013-12-27 13:20:00,
2013-12-27 03:25:00,70.2,65.8,30.00,NE,45,4.0,-999.0,86,0.00,,,0.00,Wunderground v.1.15,2013-12-27 13:25:00,
2013-12-27 03:30:00,70.2,65.8,30.00,NE,45,4.0,-999.0,86,0.00,,,0.00,Wunderground v.1.15,2013-12-27 13:30:00,
2013-12-27 03:35:00,70.2,65.8,30.00,NE,45,4.0,-999.0,86,0.00,,,0.00,Wunderground v.1.15,2013-12-27 13:35:00,
2013-12-27 03:40:00,70.2,65.8,30.00,NE,45,4.0,-999.0,86,0.00,,,0.00,Wunderground v.1.15,2013-12-27 13:40:00,
2013-12-27 03:45:00,68.9,64.9,30.00,NE,45,4.0,-999.0,87,0.00,,,0.00,Wunderground v.1.15,2013-12-27 13:45:00,
2013-12-27 03:50:00,68.9,64.9,30.00,NE,45,4.0,-999.0,87,0.00,,,0.00,Wunderground v.1.15,2013-12-27 13:50:00,
2013-12-27 03:55:00,68.9,64.9,30.00,NE,45,4.0,-999.0,87,0.00,,,0.00,Wunderground v.1.15,2013-12-27 13:55:00,
2013-12-27 04:00:00,68.9,64.9,30.00,NE,45,4.0,-999.0,87,0.00,,,0.00,Wunderground v.1.15,2013-12-27 14:00:00,
2013-12-27 04:05:00,68.9,64.9,30.00,NE,45,4.0,-999.0,87,0.00,,,0.00,Wunderground v.1.15,2013-12-27 14:05:00,
2013-12-27 04:10:00,68.9,64.9,30.00,NE,45,4.0,-999.0,87,0.00,,,0.00,Wunderground v.1.15,2013-12-27 14:10:00,
2013-12-27 04:15:00,68.7,64.3,29.99,NE,45,5.0,-999.0,86,0.00,,,0.00,Wunderground v.1.15,2013-12-27 14:15:00,
2013-12-27 04:20:00,68.7,64.3,29.99,NE,45,5.0,-999.0,86,0.00,,,0.00,Wunderground v.1.15,2013-12-27 14:20:00,
2013-12-27 04:25:00,68.7,64.3,29.99,NE,45,5.0,-999.0,86,0.00,,,0.00,Wunderground v.1.15,2013-12-27 14:25:00,
2013-12-27 04:30:00,68.7,64.3,29.99,NE,45,5.0,-999.0,86,0.00,,,0.00,Wunderground v.1.15,2013-12-27 14:30:00,
2013-12-27 04:35:00,68.7,64.3,29.99,NE,45,5.0,-999.0,86,0.00,,,0.00,Wunderground v.1.15,2013-12-27 14:35:00,
2013-12-27 04:40:00,68.7,64.3,29.99,NE,45,5.0,-999.0,86,0.00,,,0.00,Wunderground v.1.15,2013-12-27 14:40:00,
2013-12-27 04:45:00,69.0,65.0,29.99,NE,45,6.0,-999.0,87,0.00,,,0.00,Wunderground v.1.15,2013-12-27 14:45:00,
2013-12-27 04:50:00,69.0,65.0,29.99,NE,45,6.0,-999.0,87,0.00,,,0.00,Wunderground v.1.15,2013-12-27 14:50:00,
2013-12-27 04:55:00,69.0,65.0,29.99,NE,45,6.0,-999.0,87,0.00,,,0.00,Wunderground v.1.15,2013-12-27 14:55:00,
2013-12-27 05:00:00,69.0,65.0,29.99,NE,45,6.0,-999.0,87,0.00,,,0.00,Wunderground v.1.15,2013-12-27 15:00:00,
2013-12-27 05:05:00,69.0,65.0,29.99,NE,45,6.0,-999.0,87,0.00,,,0.00,Wunderground v.1.15,2013-12-27 15:05:00,
2013-12-27 05:10:00,69.0,65.0,29.99,NE,45,6.0,-999.0,87,0.00,,,0.00,Wunderground v.1.15,2013-12-27 15:10:00,
2013-12-27 05:15:00,68.9,65.2,30.00,NE,45,4.0,-999.0,88,0.00,,,0.00,Wunderground v.1.15,2013-12-27 15:15:00,
2013-12-27 05:20:00,68.9,65.2,30.00,NE,45,4.0,-999.0,88,0.00,,,0.00,Wunderground v.1.15,2013-12-27 15:20:00,
2013-12-27 05:25:00,68.9,65.2,30.00,NE,45,4.0,-999.0,88,0.00,,,0.00,Wunderground v.1.15,2013-12-27 15:25:00,
2013-12-27 05:30:00,68.9,65.2,30.00,NE,45,4.0,-999.0,88,0.00,,,0.00,Wunderground v.1.15,2013-12-27 15:30:00,
2013-12-27 05:35:00,68.9,65.2,30.00,NE,45,4.0,-999.0,88,0.00,,,0.00,Wunderground v.1.15,2013-12-27 15:35:00,
2013-12-27 05:40:00,68.9,65.2,30.00,NE,45,4.0,-999.0,88,0.00,,,0.00,Wunderground v.1.15,2013-12-27 15:40:00,
2013-12-27 05:45:00,69.3,65.6,30.01,NE,45,5.0,-999.0,88,0.00,,,0.00,Wunderground v.1.15,2013-12-27 15:45:00,
2013-12-27 05:50:00,69.3,65.6,30.01,NE,45,5.0,-999.0,88,0.00,,,0.00,Wunderground v.1.15,2013-12-27 15:50:00,
2013-12-27 05:55:00,69.3,65.6,30.01,NE,45,5.0,-999.0,88,0.00,,,0.00,Wunderground v.1.15,2013-12-27 15:55:00,
2013-12-27 06:00:00,69.3,65.6,30.01,NE,45,5.0,-999.0,88,0.00,,,0.00,Wunderground v.1.15,2013-12-27 16:00:00,
2013-12-27 06:05:00,69.3,65.6,30.01,NE,45,5.0,-999.0,88,0.00,,,0.00,Wunderground v.1.15,2013-12-27 16:05:00,
2013-12-27 06:10:00,69.3,65.6,30.01,NE,45,5.0,-999.0,88,0.00,,,0.00,Wunderground v.1.15,2013-12-27 16:10:00,
2013-12-27 06:15:00,69.5,66.1,30.02,NE,45,3.0,-999.0,89,0.00,,,0.00,Wunderground v.1.15,2013-12-27 16:15:00,
2013-12-27 06:20:00,69.5,66.1,30.02,NE,45,3.0,-999.0,89,0.00,,,0.00,Wunderground v.1.15,2013-12-27 16:20:00,
2013-12-27 06:25:00,69.5,66.1,30.02,NE,45,3.0,-999.0,89,0.00,,,0.00,Wunderground v.1.15,2013-12-27 16:25:00,
2013-12-27 06:30:00,69.5,66.1,30.02,NE,45,3.0,-999.0,89,0.00,,,0.00,Wunderground v.1.15,2013-12-27 16:30:00,
2013-12-27 06:35:00,69.5,66.1,30.02,NE,45,3.0,-999.0,89,0.00,,,0.00,Wunderground v.1.15,2013-12-27 16:35:00,
2013-12-27 06:40:00,69.5,66.1,30.02,NE,45,3.0,-999.0,89,0.00,,,0.00,Wunderground v.1.15,2013-12-27 16:40:00,
2013-12-27 06:45:00,69.8,66.1,30.03,NE,45,1.0,-999.0,88,0.00,,,0.00,Wunderground v.1.15,2013-12-27 16:45:00,
2013-12-27 06:50:00,69.8,66.1,30.03,NE,45,1.0,-999.0,88,0.00,,,0.00,Wunderground v.1.15,2013-12-27 16:50:00,
2013-12-27 06:55:00,69.8,66.1,30.03,NE,45,1.0,-999.0,88,0.00,,,0.00,Wunderground v.1.15,2013-12-27 16:55:00,
2013-12-27 07:00:00,69.8,66.1,30.03,NE,45,1.0,-999.0,88,0.00,,,0.00,Wunderground v.1.15,2013-12-27 17:00:00,
2013-12-27 07:05:00,69.8,66.1,30.03,NE,45,1.0,-999.0,88,0.00,,,0.00,Wunderground v.1.15,2013-12-27 17:05:00,
2013-12-27 07:10:00,69.8,66.1,30.03,NE,45,1.0,-999.0,88,0.00,,,0.00,Wunderground v.1.15,2013-12-27 17:10:00,
2013-12-27 07:15:00,69.7,65.7,30.03,NE,45,2.0,-999.0,87,0.00,,,0.00,Wunderground v.1.15,2013-12-27 17:15:00,
2013-12-27 07:20:00,69.7,65.7,30.03,NE,45,2.0,-999.0,87,0.00,,,0.00,Wunderground v.1.15,2013-12-27 17:20:00,
2013-12-27 07:25:00,69.7,65.7,30.03,NE,45,2.0,-999.0,87,0.00,,,0.00,Wunderground v.1.15,2013-12-27 17:25:00,
2013-12-27 07:30:00,69.7,65.7,30.03,NE,45,2.0,-999.0,87,0.00,,,0.00,Wunderground v.1.15,2013-12-27 17:30:00,
2013-12-27 07:35:00,69.7,65.7,30.03,NE,45,2.0,-999.0,87,0.00,,,0.00,Wunderground v.1.15,2013-12-27 17:35:00,
2013-12-27 07:40:00,69.7,65.7,30.03,NE,45,2.0,-999.0,87,0.00,,,0.00,Wunderground v.1.15,2013-12-27 17:40:00,
2013-12-27 07:45:00,70.1,65.4,30.04,NE,45,4.0,-999.0,85,0.00,,,0.00,Wunderground v.1.15,2013-12-27 17:45:00,
2013-12-27 07:50:00,70.1,65.4,30.04,NE,45,4.0,-999.0,85,0.00,,,0.00,Wunderground v.1.15,2013-12-27 17:50:00,
2013-12-27 07:55:00,70.1,65.4,30.04,NE,45,4.0,-999.0,85,0.00,,,0.00,Wunderground v.1.15,2013-12-27 17:55:00,
2013-12-27 08:00:00,70.1,65.4,30.04,NE,45,4.0,-999.0,85,0.00,,,0.00,Wunderground v.1.15,2013-12-27 18:00:00,
2013-12-27 08:05:00,70.1,65.4,30.04,NE,45,4.0,-999.0,85,0.01,,,0.02,Wunderground v.1.15,2013-12-27 18:05:00,
2013-12-27 08:10:00,70.1,65.4,30.04,NE,45,4.0,-999.0,85,0.01,,,0.02,Wunderground v.1.15,2013-12-27 18:10:00,
2013-12-27 08:15:00,71.0,66.6,30.05,NE,45,4.0,-999.0,86,0.01,,,0.02,Wunderground v.1.15,2013-12-27 18:15:00,
2013-12-27 08:20:00,71.0,66.6,30.05,NE,45,4.0,-999.0,86,0.01,,,0.02,Wunderground v.1.15,2013-12-27 18:20:00,
2013-12-27 08:25:00,71.0,66.6,30.05,NE,45,4.0,-999.0,86,0.01,,,0.02,Wunderground v.1.15,2013-12-27 18:25:00,
2013-12-27 08:30:00,71.0,66.6,30.05,NE,45,4.0,-999.0,86,0.01,,,0.02,Wunderground v.1.15,2013-12-27 18:30:00,
2013-12-27 08:35:00,71.0,66.6,30.05,NE,45,4.0,-999.0,86,0.01,,,0.02,Wunderground v.1.15,2013-12-27 18:35:00,
2013-12-27 08:40:00,71.0,66.6,30.05,NE,45,4.0,-999.0,86,0.01,,,0.02,Wunderground v.1.15,2013-12-27 18:40:00,
2013-12-27 08:45:00,71.5,66.8,30.06,NE,45,7.0,-999.0,85,0.01,,,0.02,Wunderground v.1.15,2013-12-27 18:45:00,
2013-12-27 08:50:00,71.5,66.8,30.06,NE,45,7.0,-999.0,85,0.01,,,0.02,Wunderground v.1.15,2013-12-27 18:50:00,
2013-12-27 08:55:00,71.5,66.8,30.06,NE,45,7.0,-999.0,85,0.01,,,0.02,Wunderground v.1.15,2013-12-27 18:55:00,
2013-12-27 09:00:00,71.5,66.8,30.06,NE,45,7.0,-999.0,85,0.01,,,0.02,Wunderground v.1.15,2013-12-27 19:00:00,
2013-12-27 09:05:00,71.5,66.8,30.06,NE,45,7.0,-999.0,85,0.01,,,0.02,Wunderground v.1.15,2013-12-27 19:05:00,
2013-12-27 09:10:00,71.5,66.8,30.06,NE,45,7.0,-999.0,85,0.01,,,0.02,Wunderground v.1.15,2013-12-27 19:10:00,
2013-12-27 09:15:00,72.3,66.8,30.06,NE,45,5.0,-999.0,83,0.01,,,0.02,Wunderground v.1.15,2013-12-27 19:15:00,
2013-12-27 09:20:00,72.3,66.8,30.06,NE,45,5.0,-999.0,83,0.01,,,0.02,Wunderground v.1.15,2013-12-27 19:20:00,
2013-12-27 09:25:00,72.3,66.8,30.06,NE,45,5.0,-999.0,83,0.01,,,0.02,Wunderground v.1.15,2013-12-27 19:25:00,
2013-12-27 09:30:00,72.9,67.4,30.06,NNE,29,6.0,12.0,83,0.00,,,0.02,Wunderground v.1.15,2013-12-27 19:30:00,
2013-12-27 09:35:00,72.3,66.8,30.06,NE,45,5.0,-999.0,83,0.01,,,0.02,Wunderground v.1.15,2013-12-27 19:35:00,
2013-12-27 09:40:00,72.3,66.8,30.06,NE,45,5.0,-999.0,83,0.01,,,0.02,Wunderground v.1.15,2013-12-27 19:40:00,
2013-12-27 09:45:00,73.0,68.9,30.07,NE,45,6.0,-999.0,87,0.00,,,0.02,Wunderground v.1.15,2013-12-27 19:45:00,
2013-12-27 09:50:00,73.0,68.9,30.07,NE,45,6.0,-999.0,87,0.02,,,0.04,Wunderground v.1.15,2013-12-27 19:50:00,
2013-12-27 09:55:00,73.0,68.9,30.07,NE,45,6.0,-999.0,87,0.02,,,0.04,Wunderground v.1.15,2013-12-27 19:55:00,
2013-12-27 10:00:00,73.0,68.9,30.07,NE,45,6.0,-999.0,87,0.00,,,0.02,Wunderground v.1.15,2013-12-27 20:00:00,
2013-12-27 10:05:00,73.0,68.9,30.07,NE,45,6.0,-999.0,87,0.02,,,0.04,Wunderground v.1.15,2013-12-27 20:05:00,
2013-12-27 10:10:00,73.0,68.9,30.07,NE,45,6.0,-999.0,87,0.02,,,0.04,Wunderground v.1.15,2013-12-27 20:10:00,
2013-12-27 10:15:00,75.2,68.6,30.06,NE,45,7.0,-999.0,80,0.02,,,0.04,Wunderground v.1.15,2013-12-27 20:15:00,
2013-12-27 10:20:00,75.2,68.6,30.06,NE,45,7.0,-999.0,80,0.02,,,0.04,Wunderground v.1.15,2013-12-27 20:20:00,
2013-12-27 10:25:00,75.2,68.6,30.06,NE,45,7.0,-999.0,80,0.02,,,0.04,Wunderground v.1.15,2013-12-27 20:25:00,
2013-12-27 10:30:00,75.2,68.6,30.06,NE,45,7.0,-999.0,80,0.02,,,0.04,Wunderground v.1.15,2013-12-27 20:30:00,
2013-12-27 10:35:00,75.2,68.6,30.06,NE,45,7.0,-999.0,80,0.02,,,0.04,Wunderground v.1.15,2013-12-27 20:35:00,
2013-12-27 10:40:00,75.2,68.6,30.06,NE,45,7.0,-999.0,80,0.02,,,0.04,Wunderground v.1.15,2013-12-27 20:40:00,
2013-12-27 10:45:00,76.1,71.6,30.06,NE,45,7.0,-999.0,86,0.00,,,0.04,Wunderground v.1.15,2013-12-27 20:45:00,
2013-12-27 10:50:00,76.1,71.6,30.06,NE,45,7.0,-999.0,86,0.00,,,0.04,Wunderground v.1.15,2013-12-27 20:50:00,
2013-12-27 10:55:00,76.1,71.6,30.06,NE,45,7.0,-999.0,86,0.00,,,0.04,Wunderground v.1.15,2013-12-27 20:55:00,
2013-12-27 11:00:00,76.1,71.6,30.06,NE,45,7.0,-999.0,86,0.01,,,0.05,Wunderground v.1.15,2013-12-27 21:00:00,
2013-12-27 11:05:00,76.1,71.6,30.06,NE,45,7.0,-999.0,86,0.01,,,0.05,Wunderground v.1.15,2013-12-27 21:05:00,
2013-12-27 11:06:00,76.1,71.6,30.06,NE,45,7.0,-999.0,86,0.00,,,0.04,Wunderground v.1.15,2013-12-27 21:06:00,
2013-12-27 11:10:00,76.1,71.6,30.06,NE,45,7.0,-999.0,86,0.01,,,0.05,Wunderground v.1.15,2013-12-27 21:10:00,
2013-12-27 11:15:00,74.2,69.7,30.05,NE,45,8.0,-999.0,86,0.01,,,0.05,Wunderground v.1.15,2013-12-27 21:15:00,
2013-12-27 11:20:00,74.2,69.7,30.05,NE,45,8.0,-999.0,86,0.01,,,0.05,Wunderground v.1.15,2013-12-27 21:20:00,
2013-12-27 11:25:00,74.2,69.7,30.05,NE,45,8.0,-999.0,86,0.01,,,0.05,Wunderground v.1.15,2013-12-27 21:25:00,
2013-12-27 11:30:00,74.2,69.7,30.05,NE,45,8.0,-999.0,86,0.01,,,0.05,Wunderground v.1.15,2013-12-27 21:30:00,
2013-12-27 11:35:00,74.2,69.7,30.05,NE,45,8.0,-999.0,86,0.01,,,0.05,Wunderground v.1.15,2013-12-27 21:35:00,
2013-12-27 11:40:00,74.2,69.7,30.05,NE,45,8.0,-999.0,86,0.01,,,0.05,Wunderground v.1.15,2013-12-27 21:40:00,
2013-12-27 11:45:00,76.0,67.5,30.02,NE,45,8.0,-999.0,75,0.00,,,0.05,Wunderground v.1.15,2013-12-27 21:45:00,
2013-12-27 11:50:00,76.0,67.5,30.02,NE,45,8.0,-999.0,75,0.00,,,0.05,Wunderground v.1.15,2013-12-27 21:50:00,
2013-12-27 11:55:00,76.0,67.5,30.02,NE,45,8.0,-999.0,75,0.01,,,0.06,Wunderground v.1.15,2013-12-27 21:55:00,
2013-12-27 12:00:00,76.0,67.5,30.02,NE,45,8.0,-999.0,75,0.01,,,0.06,Wunderground v.1.15,2013-12-27 22:00:00,
2013-12-27 12:02:00,76.0,67.5,30.02,NE,45,8.0,-999.0,75,0.00,,,0.05,Wunderground v.1.15,2013-12-27 22:02:00,
2013-12-27 12:05:00,76.0,67.5,30.02,NE,45,8.0,-999.0,75,0.01,,,0.06,Wunderground v.1.15,2013-12-27 22:05:00,
2013-12-27 12:10:00,76.0,67.5,30.02,NE,45,8.0,-999.0,75,0.01,,,0.06,Wunderground v.1.15,2013-12-27 22:10:00,
2013-12-27 12:15:00,79.2,70.2,30.00,NE,45,11.0,-999.0,74,0.01,,,0.06,Wunderground v.1.15,2013-12-27 22:15:00,
2013-12-27 12:20:00,79.2,70.2,30.00,NE,45,11.0,-999.0,74,0.01,,,0.06,Wunderground v.1.15,2013-12-27 22:20:00,
2013-12-27 12:25:00,79.2,70.2,30.00,NE,45,11.0,-999.0,74,0.01,,,0.06,Wunderground v.1.15,2013-12-27 22:25:00,
2013-12-27 12:30:00,79.2,70.2,30.00,NE,45,11.0,-999.0,74,0.01,,,0.06,Wunderground v.1.15,2013-12-27 22:30:00,
2013-12-27 12:35:00,79.2,70.2,30.00,NE,45,11.0,-999.0,74,0.01,,,0.06,Wunderground v.1.15,2013-12-27 22:35:00,
2013-12-27 12:40:00,79.2,70.2,30.00,NE,45,11.0,-999.0,74,0.01,,,0.06,Wunderground v.1.15,2013-12-27 22:40:00,
2013-12-27 12:45:00,80.5,68.1,29.98,NE,45,10.0,-999.0,66,0.00,,,0.06,Wunderground v.1.15,2013-12-27 22:45:00,
2013-12-27 12:50:00,80.5,68.1,29.98,NE,45,10.0,-999.0,66,0.00,,,0.06,Wunderground v.1.15,2013-12-27 22:50:00,
2013-12-27 12:55:00,80.5,68.1,29.98,NE,45,10.0,-999.0,66,0.00,,,0.06,Wunderground v.1.15,2013-12-27 22:55:00,
2013-12-27 13:00:00,80.5,68.1,29.98,NE,45,10.0,-999.0,66,0.00,,,0.06,Wunderground v.1.15,2013-12-27 23:00:00,
2013-12-27 13:01:00,80.5,68.1,29.98,NE,45,10.0,-999.0,66,0.00,,,0.06,Wunderground v.1.15,2013-12-27 23:01:00,
2013-12-27 13:05:00,80.5,68.1,29.98,NE,45,10.0,-999.0,66,0.00,,,0.06,Wunderground v.1.15,2013-12-27 23:05:00,
2013-12-27 13:10:00,80.5,68.1,29.98,NE,45,10.0,-999.0,66,0.00,,,0.06,Wunderground v.1.15,2013-12-27 23:10:00,
2013-12-27 13:15:00,80.8,70.5,29.97,NE,45,8.0,-999.0,71,0.00,,,0.06,Wunderground v.1.15,2013-12-27 23:15:00,
2013-12-27 13:20:00,80.8,70.5,29.97,NE,45,8.0,-999.0,71,0.00,,,0.06,Wunderground v.1.15,2013-12-27 23:20:00,
2013-12-27 13:25:00,80.8,70.5,29.97,NE,45,8.0,-999.0,71,0.00,,,0.06,Wunderground v.1.15,2013-12-27 23:25:00,
2013-12-27 13:30:00,80.8,70.5,29.97,NE,45,8.0,-999.0,71,0.00,,,0.06,Wunderground v.1.15,2013-12-27 23:30:00,
2013-12-27 13:35:00,80.8,70.5,29.97,NE,45,8.0,-999.0,71,0.00,,,0.06,Wunderground v.1.15,2013-12-27 23:35:00,
2013-12-27 13:40:00,80.8,70.5,29.97,NE,45,8.0,-999.0,71,0.00,,,0.06,Wunderground v.1.15,2013-12-27 23:40:00,
2013-12-27 13:45:00,80.8,70.1,29.96,NE,45,10.0,-999.0,70,0.00,,,0.06,Wunderground v.1.15,2013-12-27 23:45:00,
2013-12-27 13:50:00,80.8,70.1,29.96,NE,45,10.0,-999.0,70,0.00,,,0.06,Wunderground v.1.15,2013-12-27 23:50:00,
2013-12-27 13:55:00,80.8,70.1,29.96,NE,45,10.0,-999.0,70,0.00,,,0.06,Wunderground v.1.15,2013-12-27 23:55:00,
2013-12-27 14:00:00,80.8,70.1,29.96,NE,45,10.0,-999.0,70,0.00,,,0.06,Wunderground v.1.15,2013-12-28 00:00:00,
2013-12-27 14:05:00,80.8,70.1,29.96,NE,45,10.0,-999.0,70,0.00,,,0.06,Wunderground v.1.15,2013-12-28 00:05:00,
2013-12-27 14:10:00,80.8,70.1,29.96,NE,45,10.0,-999.0,70,0.00,,,0.06,Wunderground v.1.15,2013-12-28 00:10:00,
2013-12-27 14:15:00,80.6,69.5,29.94,NE,45,10.0,-999.0,69,0.00,,,0.06,Wunderground v.1.15,2013-12-28 00:15:00,
2013-12-27 14:20:00,80.6,69.5,29.94,NE,45,10.0,-999.0,69,0.00,,,0.06,Wunderground v.1.15,2013-12-28 00:20:00,
2013-12-27 14:25:00,80.6,69.5,29.94,NE,45,10.0,-999.0,69,0.00,,,0.06,Wunderground v.1.15,2013-12-28 00:25:00,
2013-12-27 14:30:00,80.6,69.5,29.94,NE,45,10.0,-999.0,69,0.00,,,0.06,Wunderground v.1.15,2013-12-28 00:30:00,
2013-12-27 14:35:00,80.6,69.5,29.94,NE,45,10.0,-999.0,69,0.00,,,0.06,Wunderground v.1.15,2013-12-28 00:35:00,
2013-12-27 14:40:00,80.6,69.5,29.94,NE,45,10.0,-999.0,69,0.00,,,0.06,Wunderground v.1.15,2013-12-28 00:40:00,
2013-12-27 14:45:00,81.5,69.5,29.94,NE,45,9.0,-999.0,67,0.00,,,0.06,Wunderground v.1.15,2013-12-28 00:45:00,
2013-12-27 14:50:00,81.5,69.5,29.94,NE,45,9.0,-999.0,67,0.00,,,0.06,Wunderground v.1.15,2013-12-28 00:50:00,
2013-12-27 14:55:00,81.5,69.5,29.94,NE,45,9.0,-999.0,67,0.00,,,0.06,Wunderground v.1.15,2013-12-28 00:55:00,
2013-12-27 15:00:00,81.5,69.5,29.94,NE,45,9.0,-999.0,67,0.00,,,0.06,Wunderground v.1.15,2013-12-28 01:00:00,
2013-12-27 15:05:00,81.5,69.5,29.94,NE,45,9.0,-999.0,67,0.00,,,0.06,Wunderground v.1.15,2013-12-28 01:05:00,
2013-12-27 15:10:00,81.5,69.5,29.94,NE,45,9.0,-999.0,67,0.00,,,0.06,Wunderground v.1.15,2013-12-28 01:10:00,
2013-12-27 15:15:00,80.5,67.6,29.94,NE,45,6.0,-999.0,65,0.00,,,0.06,Wunderground v.1.15,2013-12-28 01:15:00,
2013-12-27 15:20:00,80.5,67.6,29.94,NE,45,6.0,-999.0,65,0.00,,,0.06,Wunderground v.1.15,2013-12-28 01:20:00,
2013-12-27 15:25:00,80.5,67.6,29.94,NE,45,6.0,-999.0,65,0.00,,,0.06,Wunderground v.1.15,2013-12-28 01:25:00,
2013-12-27 15:30:00,80.5,67.6,29.94,NE,45,6.0,-999.0,65,0.00,,,0.06,Wunderground v.1.15,2013-12-28 01:30:00,
2013-12-27 15:32:00,80.5,67.6,29.94,NE,45,6.0,-999.0,65,0.00,,,0.06,Wunderground v.1.15,2013-12-28 01:32:00,
2013-12-27 15:35:00,80.5,67.6,29.94,NE,45,6.0,-999.0,65,0.00,,,0.06,Wunderground v.1.15,2013-12-28 01:35:00,
2013-12-27 15:40:00,80.5,67.6,29.94,NE,45,6.0,-999.0,65,0.00,,,0.06,Wunderground v.1.15,2013-12-28 01:40:00,
2013-12-27 15:45:00,79.7,67.8,29.95,NE,45,7.0,-999.0,67,0.00,,,0.06,Wunderground v.1.15,2013-12-28 01:45:00,
2013-12-27 15:50:00,79.7,67.8,29.95,NE,45,7.0,-999.0,67,0.00,,,0.06,Wunderground v.1.15,2013-12-28 01:50:00,
2013-12-27 15:55:00,79.7,67.8,29.95,NE,45,7.0,-999.0,67,0.00,,,0.06,Wunderground v.1.15,2013-12-28 01:55:00,
2013-12-27 16:00:00,79.7,67.8,29.95,NE,45,7.0,-999.0,67,0.00,,,0.06,Wunderground v.1.15,2013-12-28 02:00:00,
2013-12-27 16:05:00,79.7,67.8,29.95,NE,45,7.0,-999.0,67,0.00,,,0.06,Wunderground v.1.15,2013-12-28 02:05:00,
2013-12-27 16:10:00,79.7,67.8,29.95,NE,45,7.0,-999.0,67,0.00,,,0.06,Wunderground v.1.15,2013-12-28 02:10:00,
2013-12-27 16:15:00,79.6,67.7,29.94,NE,45,8.0,-999.0,67,0.00,,,0.06,Wunderground v.1.15,2013-12-28 02:15:00,
2013-12-27 16:20:00,79.6,67.7,29.94,NE,45,8.0,-999.0,67,0.00,,,0.06,Wunderground v.1.15,2013-12-28 02:20:00,
2013-12-27 16:25:00,79.6,67.7,29.94,NE,45,8.0,-999.0,67,0.00,,,0.06,Wunderground v.1.15,2013-12-28 02:25:00,
2013-12-27 16:30:00,79.6,67.7,29.94,NE,45,8.0,-999.0,67,0.00,,,0.06,Wunderground v.1.15,2013-12-28 02:30:00,
2013-12-27 16:35:00,79.6,67.7,29.94,NE,45,8.0,-999.0,67,0.00,,,0.06,Wunderground v.1.15,2013-12-28 02:35:00,
2013-12-27 16:40:00,79.6,67.7,29.94,NE,45,8.0,-999.0,67,0.00,,,0.06,Wunderground v.1.15,2013-12-28 02:40:00,
2013-12-27 16:45:00,78.8,66.9,29.96,NE,45,5.0,-999.0,67,0.00,,,0.06,Wunderground v.1.15,2013-12-28 02:45:00,
2013-12-27 16:50:00,78.8,66.9,29.96,NE,45,5.0,-999.0,67,0.00,,,0.06,Wunderground v.1.15,2013-12-28 02:50:00,
2013-12-27 16:55:00,78.8,66.9,29.96,NE,45,5.0,-999.0,67,0.00,,,0.06,Wunderground v.1.15,2013-12-28 02:55:00,
2013-12-27 17:00:00,78.8,66.9,29.96,NE,45,5.0,-999.0,67,0.00,,,0.06,Wunderground v.1.15,2013-12-28 03:00:00,
2013-12-27 17:01:00,78.8,66.9,29.96,NE,45,5.0,-999.0,67,0.00,,,0.06,Wunderground v.1.15,2013-12-28 03:01:00,
2013-12-27 17:05:00,78.8,66.9,29.96,NE,45,5.0,-999.0,67,0.00,,,0.06,Wunderground v.1.15,2013-12-28 03:05:00,
2013-12-27 17:10:00,78.8,66.9,29.96,NE,45,5.0,-999.0,67,0.00,,,0.06,Wunderground v.1.15,2013-12-28 03:10:00,
2013-12-27 17:15:00,77.9,68.1,29.95,NE,45,5.0,-999.0,72,0.00,,,0.06,Wunderground v.1.15,2013-12-28 03:15:00,
2013-12-27 17:20:00,77.9,68.1,29.95,NE,45,5.0,-999.0,72,0.00,,,0.06,Wunderground v.1.15,2013-12-28 03:20:00,
2013-12-27 17:25:00,77.9,68.1,29.95,NE,45,5.0,-999.0,72,0.00,,,0.06,Wunderground v.1.15,2013-12-28 03:25:00,
2013-12-27 17:30:00,77.9,68.1,29.95,NE,45,5.0,-999.0,72,0.00,,,0.06,Wunderground v.1.15,2013-12-28 03:30:00,
2013-12-27 17:35:00,77.9,68.1,29.95,NE,45,5.0,-999.0,72,0.00,,,0.06,Wunderground v.1.15,2013-12-28 03:35:00,
2013-12-27 17:40:00,77.9,68.1,29.95,NE,45,5.0,-999.0,72,0.00,,,0.06,Wunderground v.1.15,2013-12-28 03:40:00,
2013-12-27 17:45:00,75.3,67.6,29.96,NE,45,6.0,-999.0,77,0.00,,,0.06,Wunderground v.1.15,2013-12-28 03:45:00,
2013-12-27 17:50:00,75.3,67.6,29.96,NE,45,6.0,-999.0,77,0.00,,,0.06,Wunderground v.1.15,2013-12-28 03:50:00,
2013-12-27 17:55:00,75.3,67.6,29.96,NE,45,6.0,-999.0,77,0.00,,,0.06,Wunderground v.1.15,2013-12-28 03:55:00,
2013-12-27 18:00:00,75.3,67.6,29.96,NE,45,6.0,-999.0,77,0.00,,,0.06,Wunderground v.1.15,2013-12-28 04:00:00,
2013-12-27 18:01:00,75.3,67.6,29.96,NE,45,6.0,-999.0,77,0.00,,,0.06,Wunderground v.1.15,2013-12-28 04:01:00,
2013-12-27 18:05:00,75.3,67.6,29.96,NE,45,6.0,-999.0,77,0.00,,,0.06,Wunderground v.1.15,2013-12-28 04:05:00,
2013-12-27 18:10:00,75.3,67.6,29.96,NE,45,6.0,-999.0,77,0.00,,,0.06,Wunderground v.1.15,2013-12-28 04:10:00,
2013-12-27 18:15:00,74.1,67.2,29.99,NE,45,4.0,-999.0,79,0.00,,,0.06,Wunderground v.1.15,2013-12-28 04:15:00,
2013-12-27 18:20:00,74.1,67.2,29.99,NE,45,4.0,-999.0,79,0.00,,,0.06,Wunderground v.1.15,2013-12-28 04:20:00,
2013-12-27 18:25:00,74.1,67.2,29.99,NE,45,4.0,-999.0,79,0.00,,,0.06,Wunderground v.1.15,2013-12-28 04:25:00,
2013-12-27 18:30:00,74.1,67.2,29.99,NE,45,4.0,-999.0,79,0.00,,,0.06,Wunderground v.1.15,2013-12-28 04:30:00,
2013-12-27 18:35:00,74.1,67.2,29.99,NE,45,4.0,-999.0,79,0.00,,,0.06,Wunderground v.1.15,2013-12-28 04:35:00,
2013-12-27 18:40:00,74.1,67.2,29.99,NE,45,4.0,-999.0,79,0.00,,,0.06,Wunderground v.1.15,2013-12-28 04:40:00,
2013-12-27 18:45:00,73.9,67.3,29.99,NE,45,4.0,-999.0,80,0.00,,,0.06,Wunderground v.1.15,2013-12-28 04:45:00,
2013-12-27 18:50:00,73.9,67.3,29.99,NE,45,4.0,-999.0,80,0.00,,,0.06,Wunderground v.1.15,2013-12-28 04:50:00,
2013-12-27 18:55:00,73.9,67.3,29.99,NE,45,4.0,-999.0,80,0.00,,,0.06,Wunderground v.1.15,2013-12-28 04:55:00,
2013-12-27 19:00:00,73.9,67.3,29.99,NE,45,4.0,-999.0,80,0.00,,,0.06,Wunderground v.1.15,2013-12-28 05:00:00,
2013-12-27 19:01:00,73.9,67.3,29.99,NE,45,4.0,-999.0,80,0.00,,,0.06,Wunderground v.1.15,2013-12-28 05:01:00,
2013-12-27 19:05:00,73.9,67.3,29.99,NE,45,4.0,-999.0,80,0.00,,,0.06,Wunderground v.1.15,2013-12-28 05:05:00,
2013-12-27 19:10:00,73.9,67.3,29.99,NE,45,4.0,-999.0,80,0.00,,,0.06,Wunderground v.1.15,2013-12-28 05:10:00,
2013-12-27 19:15:00,73.2,67.7,30.00,NE,45,6.0,-999.0,83,0.00,,,0.06,Wunderground v.1.15,2013-12-28 05:15:00,
2013-12-27 19:20:00,73.2,67.7,30.00,NE,45,6.0,-999.0,83,0.00,,,0.06,Wunderground v.1.15,2013-12-28 05:20:00,
2013-12-27 19:25:00,73.2,67.7,30.00,NE,45,6.0,-999.0,83,0.00,,,0.06,Wunderground v.1.15,2013-12-28 05:25:00,
2013-12-27 19:30:00,73.2,67.7,30.00,NE,45,6.0,-999.0,83,0.00,,,0.06,Wunderground v.1.15,2013-12-28 05:30:00,
2013-12-27 19:35:00,73.2,67.7,30.00,NE,45,6.0,-999.0,83,0.00,,,0.06,Wunderground v.1.15,2013-12-28 05:35:00,
2013-12-27 19:40:00,73.2,67.7,30.00,NE,45,6.0,-999.0,83,0.00,,,0.06,Wunderground v.1.15,2013-12-28 05:40:00,
2013-12-27 19:45:00,72.4,67.3,30.01,NE,45,4.0,-999.0,84,0.00,,,0.06,Wunderground v.1.15,2013-12-28 05:45:00,
2013-12-27 19:50:00,72.4,67.3,30.01,NE,45,4.0,-999.0,84,0.00,,,0.06,Wunderground v.1.15,2013-12-28 05:50:00,
2013-12-27 19:55:00,72.4,67.3,30.01,NE,45,4.0,-999.0,84,0.00,,,0.06,Wunderground v.1.15,2013-12-28 05:55:00,
2013-12-27 20:00:00,72.6,67.5,30.02,NE,56,4.0,7.0,84,0.00,,,0.05,Wunderground v.1.15,2013-12-28 06:00:00,
2013-12-27 20:05:00,72.4,67.3,30.01,NE,45,4.0,-999.0,84,0.00,,,0.06,Wunderground v.1.15,2013-12-28 06:05:00,
2013-12-27 20:10:00,72.4,67.3,30.01,NE,45,4.0,-999.0,84,0.00,,,0.06,Wunderground v.1.15,2013-12-28 06:10:00,
2013-12-27 20:15:00,72.7,67.9,30.02,NE,45,8.0,-999.0,85,0.00,,,0.06,Wunderground v.1.15,2013-12-28 06:15:00,
2013-12-27 20:20:00,72.7,67.9,30.02,NE,45,8.0,-999.0,85,0.00,,,0.06,Wunderground v.1.15,2013-12-28 06:20:00,
2013-12-27 20:25:00,72.7,67.9,30.02,NE,45,8.0,-999.0,85,0.00,,,0.06,Wunderground v.1.15,2013-12-28 06:25:00,
2013-12-27 20:30:00,72.7,67.9,30.02,NE,45,8.0,-999.0,85,0.00,,,0.06,Wunderground v.1.15,2013-12-28 06:30:00,
2013-12-27 20:35:00,72.7,67.9,30.02,NE,45,8.0,-999.0,85,0.00,,,0.06,Wunderground v.1.15,2013-12-28 06:35:00,
2013-12-27 20:40:00,72.7,67.9,30.02,NE,45,8.0,-999.0,85,0.00,,,0.06,Wunderground v.1.15,2013-12-28 06:40:00,
2013-12-27 20:45:00,72.4,67.6,30.03,NE,45,7.0,-999.0,85,0.00,,,0.06,Wunderground v.1.15,2013-12-28 06:45:00,
2013-12-27 20:50:00,72.4,67.6,30.03,NE,45,7.0,-999.0,85,0.00,,,0.06,Wunderground v.1.15,2013-12-28 06:50:00,
2013-12-27 20:55:00,72.4,67.6,30.03,NE,45,7.0,-999.0,85,0.00,,,0.06,Wunderground v.1.15,2013-12-28 06:55:00,
2013-12-27 21:00:00,72.4,67.6,30.03,NE,45,7.0,-999.0,85,0.00,,,0.06,Wunderground v.1.15,2013-12-28 07:00:00,
2013-12-27 21:05:00,72.4,67.6,30.03,NE,45,7.0,-999.0,85,0.00,,,0.06,Wunderground v.1.15,2013-12-28 07:05:00,
2013-12-27 21:10:00,72.4,67.6,30.03,NE,45,7.0,-999.0,85,0.00,,,0.06,Wunderground v.1.15,2013-12-28 07:10:00,
2013-12-27 21:15:00,72.7,67.6,30.03,NE,45,7.0,-999.0,84,0.00,,,0.06,Wunderground v.1.15,2013-12-28 07:15:00,
2013-12-27 21:20:00,72.7,67.6,30.03,NE,45,7.0,-999.0,84,0.00,,,0.06,Wunderground v.1.15,2013-12-28 07:20:00,
2013-12-27 21:25:00,72.7,67.6,30.03,NE,45,7.0,-999.0,84,0.00,,,0.06,Wunderground v.1.15,2013-12-28 07:25:00,
2013-12-27 21:30:00,72.7,67.6,30.03,NE,45,7.0,-999.0,84,0.00,,,0.06,Wunderground v.1.15,2013-12-28 07:30:00,
2013-12-27 21:35:00,72.7,67.6,30.03,NE,45,7.0,-999.0,84,0.00,,,0.06,Wunderground v.1.15,2013-12-28 07:35:00,
2013-12-27 21:40:00,72.7,67.6,30.03,NE,45,7.0,-999.0,84,0.00,,,0.06,Wunderground v.1.15,2013-12-28 07:40:00,
2013-12-27 21:45:00,73.2,67.7,30.04,NE,45,8.0,-999.0,83,0.00,,,0.06,Wunderground v.1.15,2013-12-28 07:45:00,
2013-12-27 21:50:00,73.2,67.7,30.04,NE,45,8.0,-999.0,83,0.00,,,0.06,Wunderground v.1.15,2013-12-28 07:50:00,
2013-12-27 21:55:00,73.2,67.7,30.04,NE,45,8.0,-999.0,83,0.00,,,0.06,Wunderground v.1.15,2013-12-28 07:55:00,
2013-12-27 22:00:00,73.4,67.9,30.04,NE,36,7.0,11.0,83,0.00,,,0.05,Wunderground v.1.15,2013-12-28 08:00:00,
2013-12-27 22:05:00,73.2,67.7,30.04,NE,45,8.0,-999.0,83,0.00,,,0.06,Wunderground v.1.15,2013-12-28 08:05:00,
2013-12-27 22:10:00,73.2,67.7,30.04,NE,45,8.0,-999.0,83,0.00,,,0.06,Wunderground v.1.15,2013-12-28 08:10:00,
2013-12-27 22:15:00,73.5,67.7,30.04,NE,45,7.0,-999.0,82,0.00,,,0.06,Wunderground v.1.15,2013-12-28 08:15:00,
2013-12-27 22:20:00,73.5,67.7,30.04,NE,45,7.0,-999.0,82,0.00,,,0.06,Wunderground v.1.15,2013-12-28 08:20:00,
2013-12-27 22:25:00,73.5,67.7,30.04,NE,45,7.0,-999.0,82,0.00,,,0.06,Wunderground v.1.15,2013-12-28 08:25:00,
2013-12-27 22:30:00,73.5,67.7,30.04,NE,45,7.0,-999.0,82,0.00,,,0.06,Wunderground v.1.15,2013-12-28 08:30:00,
2013-12-27 22:35:00,73.5,67.7,30.04,NE,45,7.0,-999.0,82,0.00,,,0.06,Wunderground v.1.15,2013-12-28 08:35:00,
2013-12-27 22:40:00,73.5,67.7,30.04,NE,45,7.0,-999.0,82,0.00,,,0.06,Wunderground v.1.15,2013-12-28 08:40:00,
2013-12-27 22:45:00,73.5,67.7,30.04,NE,45,7.0,-999.0,82,0.00,,,0.06,Wunderground v.1.15,2013-12-28 08:45:00,
2013-12-27 22:50:00,73.5,67.7,30.04,NE,45,7.0,-999.0,82,0.00,,,0.06,Wunderground v.1.15,2013-12-28 08:50:00,
2013-12-27 22:55:00,73.5,67.7,30.04,NE,45,7.0,-999.0,82,0.00,,,0.06,Wunderground v.1.15,2013-12-28 08:55:00,
2013-12-27 23:00:00,73.5,67.7,30.04,NE,45,7.0,-999.0,82,0.00,,,0.06,Wunderground v.1.15,2013-12-28 09:00:00,
2013-12-27 23:05:00,73.5,67.7,30.04,NE,45,7.0,-999.0,82,0.00,,,0.06,Wunderground v.1.15,2013-12-28 09:05:00,
2013-12-27 23:10:00,73.5,67.7,30.04,NE,45,7.0,-999.0,82,0.00,,,0.06,Wunderground v.1.15,2013-12-28 09:10:00,
2013-12-27 23:15:00,73.6,68.1,30.03,NE,45,8.0,-999.0,83,0.00,,,0.06,Wunderground v.1.15,2013-12-28 09:15:00,
2013-12-27 23:20:00,73.6,68.1,30.03,NE,45,8.0,-999.0,83,0.00,,,0.06,Wunderground v.1.15,2013-12-28 09:20:00,
2013-12-27 23:25:00,73.6,68.1,30.03,NE,45,8.0,-999.0,83,0.00,,,0.06,Wunderground v.1.15,2013-12-28 09:25:00,
2013-12-27 23:30:00,73.6,68.1,30.03,NE,45,8.0,-999.0,83,0.00,,,0.06,Wunderground v.1.15,2013-12-28 09:30:00,
2013-12-27 23:35:00,73.6,68.1,30.03,NE,45,8.0,-999.0,83,0.00,,,0.06,Wunderground v.1.15,2013-12-28 09:35:00,
2013-12-27 23:40:00,73.6,68.1,30.03,NE,45,8.0,-999.0,83,0.00,,,0.06,Wunderground v.1.15,2013-12-28 09:40:00,
2013-12-27 23:45:00,73.2,68.1,30.02,NE,45,7.0,-999.0,84,0.00,,,0.06,Wunderground v.1.15,2013-12-28 09:45:00,
2013-12-27 23:50:00,73.2,68.1,30.02,NE,45,7.0,-999.0,84,0.00,,,0.06,Wunderground v.1.15,2013-12-28 09:50:00,
2013-12-27 23:55:00,73.2,68.1,30.02,NE,45,7.0,-999.0,84,0.00,,,0.06,Wunderground v.1.15,2013-12-28 09:55:00,